Dewpoint
65 65 56 51 40 44 43 45 52 49 54 60 60 59 58 61 59 58 70 71 73 73 75 75 75 76 76 75 74 74 74 74 74 75 75 75 75 75 74 75 75 74 74 73 73 71 71 70 70
53 59 50 43 36 34 33 44 47 48 57 62 61 57 56 58 63 65 68 69 72 72 74 74 76 76 76 75 75 75 74 74 74 74 75 75 75 74 74 74 73 72 72 71 70 69 69 68 68
56 48 43 39 37 34 32 36 45 48 55 59 60 58 57 59 64 66 67 70 72 73 73 73 74 76 75 75 75 75 75 75 74 74 74 74 75 74 74 74 73 72 71 71 70 70 70 70 69
40 38 36 35 34 32 32 30 45 53 57 59 58 58 62 65 66 68 70 70 73 73 74 73 73 75 75 75 75 75 75 75 75 74 74 73 74 74 74 73 73 72 72 72 71 71 71 70 70
33 33 29 25 26 28 26 45 52 54 56 58 57 58 60 65 68 68 69 70 71 73 74 74 75 76 75 75 75 75 75 75 75 74 74 74 74 73 73 74 73 73 73 73 72 72 72 71 70
23 25 20 20 22 21 39 49 53 55 56 56 56 57 59 65 65 67 69 69 71 72 73 73 75 75 75 75 75 75 75 75 74 74 74 73 73 73 73 74 74 74 74 73 73 73 73 72 72
18 18 17 20 15 14 36 50 51 53 55 55 57 54 59 62 64 70 70 70 70 71 71 72 73 73 74 75 75 74 74 74 73 73 73 73 73 73 73 73 73 73 74 74 74 74 73 73 73
18 14 20 11 14 11 47 50 53 55 55 58 56 54 56 61 66 68 69 68 68 68 68 70 71 72 73 73 74 74 73 73 73 73 73 74 73 73 72 73 73 73 73 74 74 74 74 73 73
14 10 9 9 10 12 39 51 56 57 56 57 59 58 60 62 66 66 66 66 66 67 67 68 68 69 71 72 72 73 73 73 73 72 71 71 71 70 71 69 68 71 72 72 73 74 74 73 73
12 10 9 10 10 10 21 51 54 54 55 56 57 59 59 60 64 63 63 62 62 65 67 68 68 69 71 71 71 69 65 66 69 67 67 69 69 68 67 65 68 70 70 71 71 72 73 73 71
10 9 9 9 10 12 25 51 54 54 54 56 56 57 59 63 64 63 63 63 63 64 66 67 65 67 70 69 69 67 66 67 66 66 66 67 67 66 64 65 69 68 69 69 70 69 70 70 69
25 10 10 10 11 12 18 49 53 54 55 57 57 60 59 60 61 61 61 62 64 64 65 67 67 69 68 69 67 65 65 65 66 66 66 66 66 65 63 66 67 66 68 68 68 68 68 69 67
10 10 11 11 52 54 53 55 55 54 57 60 60 60 60 60 60 60 60 61 61 62 62 65 66 66 65 64 63 62 64 63 64 65 67 66 64 63 63 64 66 66 67 67 63 66 67 68 67
17 16 13 22 52 53 51 52 55 58 59 59 58 58 58 58 58 58 57 57 58 58 59 61 64 63 63 62 61 62 62 63 64 64 65 64 63 62 63 63 65 66 68 67 66 67 67 68 68
21 16 14 44 51 51 53 53 55 58 57 56 56 56 55 56 56 56 56 56 57 57 58 58 61 63 64 63 62 62 62 62 61 62 65 65 63 63 62 61 61 65 67 67 68 66 65 67 68
18 16 15 23 49 51 51 51 56 56 55 54 54 53 52 53 54 54 55 54 55 55 55 56 56 58 60 62 62 62 64 63 60 59 59 59 61 61 66 66 66 66 67 66 66 66 66 67 66
16 13 16 15 20 46 50 51 55 55 53 52 52 51 50 50 50 51 52 53 53 53 53 53 53 55 57 59 61 58 57 60 57 55 56 55 56 57 58 59 59 61 63 62 63 64 64 64 64
14 14 15 14 28 50 51 51 53 53 52 51 50 49 49 48 49 51 52 51 51 52 52 52 52 54 55 56 60 58 53 54 54 53 50 51 52 51 53 53 53 54 57 57 59 58 61 62 62
19 17 14 38 49 50 50 51 50 51 51 50 49 49 48 47 49 49 50 51 49 49 50 50 50 51 51 53 54 56 52 52 51 48 47 47 50 47 46 46 47 47 49 50 50 54 57 61 58
19 12 15 45 49 50 49 48 49 50 50 50 49 48 48 47 48 47 49 50 50 49 49 49 48 49 49 48 49 49 49 47 47 45 43 44 46 46 44 44 46 45 45 46 47 50 53 55 55
18 20 20 40 48 48 46 46 47 48 49 48 47 46 46 46 45 46 48 49 49 48 48 48 48 46 46 45 44 44 44 45 42 42 42 43 44 45 46 44 45 45 44 45 46 48 48 50 54
16 22 25 44 44 43 44 39 45 46 45 45 45 45 46 44 44 45 47 47 47 47 46 46 46 45 43 43 42 41 41 41 43 42 42 42 43 44 44 44 44 44 44 44 45 47 46 47 47
18 21 20 19 19 19 26 38 40 43 41 42 44 46 44 43 44 44 46 45 45 45 45 45 44 44 43 42 42 41 40 41 41 41 42 42 43 43 44 44 44 44 44 45 45 46 46 46 46
22 19 23 23 17 12 16 19 43 41 41 41 41 45 41 41 42 43 44 44 43 43 43 43 42 42 41 41 41 41 40 41 41 41 41 42 42 43 44 44 44 45 45 46 46 46 46 46 46
19 21 19 18 17 17 28 31 37 44 45 42 41 40 41 41 41 42 42 42 41 42 42 41 40 40 40 40 41 41 41 41 40 41 41 41 42 43 44 44 45 46 46 47 47 47 47 47 46
16 17 20 15 16 17 30 34 39 46 47 43 43 43 41 39 39 41 41 41 41 41 41 40 39 39 40 42 42 43 42 42 42 41 42 42 42 43 44 46 46 47 47 48 48 49 50 51 53
19 12 19 16 20 17 32 39 42 42 42 42 42 40 40 39 40 40 41 40 39 39 40 39 39 41 41 41 42 42 43 43 43 43 42 43 44 46 47 46 46 47 48 48 48 48 50 51 51
19 18 18 18 14 16 24 35 35 41 40 40 40 39 39 39 39 39 39 39 39 39 39 39 41 41 42 42 41 43 43 44 43 44 44 44 45 45 45 45 45 46 47 46 46 46 48 47 46
24 21 22 19 25 19 23 26 36 42 41 40 40 40 39 38 38 38 38 38 38 38 38 41 41 41 42 41 42 43 43 43 42 43 44 44 44 46 47 46 46 46 46 46 45 46 46 45 43
24 22 20 23 17 28 27 27 39 42 42 41 41 42 39 38 38 38 38 38 38 37 38 40 40 41 41 41 42 42 43 41 43 43 44 45 46 47 46 45 44 44 44 45 45 45 45 44 43
Lifted_Index
4 3 3 2 2 1 1 1 -0 -1 -3 -3 -2 -2 -1 -2 -4 -4 -4 -4 -4 -4 -5 -5 -5 -5 -5 -5 -4 -4 -4 -4 -4 -4 -4 -4 -4 -4 -3 -3 -3 -3 -2 -2 -2 -1 -1 -0 0
5 4 3 2 2 2 1 1 0 -1 -3 -4 -3 -2 -1 -2 -3 -3 -3 -3 -4 -4 -4 -5 -5 -5 -5 -5 -5 -5 -4 -4 -4 -4 -4 -4 -4 -4 -3 -3 -3 -2 -2 -2 -2 -1 -1 -0 0
6 5 3 2 2 2 2 2 1 -2 -4 -4 -4 -2 -1 -2 -3 -3 -3 -3 -4 -4 -4 -4 -4 -5 -5 -5 -5 -5 -5 -5 -5 -5 -5 -5 -4 -4 -4 -3 -3 -3 -2 -2 -2 -1 -1 -0 -0
6 5 3 2 1 2 2 1 -0 -2 -4 -5 -4 -2 -2 -2 -3 -2 -3 -3 -4 -4 -4 -4 -4 -5 -5 -5 -5 -5 -5 -5 -5 -5 -5 -4 -4 -4 -4 -4 -4 -3 -3 -3 -3 -2 -1 -1 -0
5 4 2 1 1 1 0 -0 -1 -2 -3 -4 -3 -2 -2 -2 -2 -2 -3 -3 -4 -4 -4 -5 -5 -6 -6 -5 -5 -5 -5 -5 -5 -5 -5 -4 -4 -4 -4 -4 -4 -4 -4 -4 -3 -3 -2 -1 -1
4 4 2 1 1 -0 -1 -2 -2 -2 -2 -2 -2 -1 -1 -2 -2 -3 -3 -3 -4 -4 -4 -5 -6 -6 -6 -6 -5 -5 -5 -5 -5 -4 -4 -4 -4 -4 -4 -4 -4 -4 -4 -4 -4 -3 -3 -2 -2
5 4 3 1 1 -0 -1 -2 -2 -2 -2 -1 -1 -1 -1 -2 -3 -3 -4 -4 -3 -3 -3 -4 -5 -6 -6 -6 -6 -5 -5 -4 -4 -4 -4 -4 -4 -4 -4 -4 -4 -4 -4 -4 -4 -4 -4 -3 -3
7 5 3 1 1 1 -1 -2 -2 -3 -2 -1 -1 -1 -2 -3 -4 -4 -4 -4 -3 -3 -3 -3 -4 -5 -6 -6 -6 -6 -5 -5 -5 -4 -5 -5 -5 -4 -4 -4 -4 -4 -4 -5 -5 -5 -4 -4 -3
7 5 2 1 1 1 0 -1 -2 -2 -2 -1 -1 -1 -2 -4 -4 -5 -4 -4 -4 -4 -4 -4 -4 -5 -5 -6 -6 -6 -6 -5 -5 -4 -4 -4 -4 -3 -3 -3 -4 -4 -4 -4 -4 -5 -4 -4 -4
6 4 2 2 2 2 1 -1 -1 -1 -0 -0 -1 -2 -3 -4 -4 -5 -5 -5 -4 -4 -5 -5 -5 -5 -6 -6 -6 -5 -5 -4 -3 -3 -2 -2 -2 -2 -2 -2 -2 -3 -3 -3 -3 -4 -4 -4 -4
5 4 3 3 3 3 2 -0 -1 -0 0 -0 -1 -2 -3 -4 -5 -5 -5 -4 -4 -4 -5 -5 -5 -5 -6 -5 -5 -4 -4 -3 -2 -2 -1 -1 -1 -1 -1 -1 -1 -1 -1 -2 -2 -2 -2 -3 -3
5 5 4 3 3 3 2 0 -1 -0 -0 -1 -2 -3 -4 -4 -5 -5 -4 -3 -3 -3 -3 -4 -4 -5 -5 -5 -4 -4 -4 -3 -2 -2 -1 -1 -0 0 0 0 0 0 -0 -0 -0 -0 -1 -2 -2
6 5 5 4 2 1 0 -1 -1 -1 -1 -2 -3 -3 -4 -4 -5 -5 -4 -3 -2 -2 -2 -3 -4 -5 -5 -5 -5 -4 -3 -3 -2 -1 -1 -0 0 1 1 1 1 1 1 1 1 1 -0 -1 -1
6 5 5 3 1 -1 -1 -1 -1 -2 -2 -2 -3 -3 -4 -4 -4 -4 -4 -3 -2 -2 -2 -3 -4 -4 -5 -5 -4 -4 -3 -2 -1 -1 -1 -1 0 1 1 1 1 0 0 0 1 1 1 -0 -1
6 5 4 2 0 -1 -1 -1 -2 -2 -2 -2 -3 -3 -3 -3 -3 -3 -3 -3 -3 -2 -2 -3 -3 -4 -4 -4 -4 -3 -2 -2 -2 -2 -2 -2 -1 -1 -1 -0 -0 -1 -1 -1 -0 0 0 -1 -2
5 4 3 2 0 -1 -1 -1 -2 -2 -2 -2 -2 -3 -3 -3 -3 -3 -3 -3 -3 -2 -2 -3 -3 -4 -4 -3 -3 -3 -3 -3 -3 -3 -3 -2 -2 -1 -2 -1 -1 -1 -1 -1 -1 -1 -1 -2 -2
4 3 3 2 1 0 -1 -2 -2 -2 -2 -2 -2 -3 -3 -3 -3 -2 -2 -2 -2 -2 -3 -3 -3 -3 -3 -3 -3 -3 -3 -3 -2 -2 -2 -1 -1 -1 -1 -1 -1 -1 -1 -1 -1 -1 -2 -2 -2
3 3 2 2 1 -0 -2 -2 -2 -2 -2 -2 -2 -3 -3 -2 -1 -1 -1 -1 -1 -2 -2 -2 -2 -2 -2 -2 -2 -2 -2 -2 -1 -0 0 1 1 0 0 0 0 1 1 1 0 -0 -1 -1 -1
2 2 2 1 -1 -2 -2 -3 -3 -2 -2 -2 -2 -2 -1 -0 0 -0 -0 -0 -0 -0 0 1 1 1 1 1 1 0 -0 0 1 2 4 4 4 4 4 4 4 4 4 4 4 3 2 1 0
2 2 1 -0 -2 -2 -2 -3 -3 -2 -2 -2 -1 -1 -0 1 1 1 1 1 1 2 3 4 4 5 6 6 6 5 4 5 5 6 7 8 8 8 8 8 8 8 8 8 7 7 5 4 3
2 2 1 -1 -2 -2 -2 -2 -2 -2 -2 -2 -1 -1 1 2 2 3 2 2 3 3 4 5 6 7 8 9 9 8 8 8 8 9 9 10 11 11 11 11 11 11 11 10 10 10 9 8 7
3 2 1 -0 -1 -2 -2 -2 -1 -1 -2 -2 -1 -0 1 2 3 3 3 3 3 4 5 6 6 7 8 9 10 10 9 9 9 10 10 11 12 12 12 12 12 12 12 12 11 11 11 11 10
3 2 2 1 1 -0 -1 -1 -1 -1 -1 -2 -1 -0 1 2 3 3 3 3 3 4 5 6 7 7 8 10 10 10 10 10 10 11 11 12 13 13 13 13 13 12 12 12 11 11 11 11 11
3 2 2 2 1 1 1 0 0 -0 -1 -1 -1 -0 1 2 3 3 3 3 3 4 5 6 7 7 9 10 11 11 11 11 11 11 12 12 13 13 13 13 13 12 11 11 11 10 10 10 10
3 2 2 1 1 1 2 1 1 0 -0 -1 -1 -0 1 2 2 2 2 2 3 5 5 6 7 7 9 10 11 12 12 12 12 12 13 13 13 13 13 13 12 12 11 10 10 10 9 9 9
2 2 2 1 1 1 2 2 1 -0 -1 -1 -1 -0 1 2 2 1 2 3 4 5 6 6 7 8 9 11 12 13 13 14 14 14 14 13 13 13 13 12 12 11 11 10 10 9 9 9 8
2 2 2 1 1 1 2 1 1 -0 -1 -1 -1 -0 0 1 1 1 2 4 5 6 6 7 7 9 10 11 12 13 14 14 14 14 14 13 13 12 12 12 12 11 11 11 10 9 9 9 9
2 2 2 2 1 1 1 1 1 -0 -1 -1 -1 -0 0 0 1 2 3 5 6 6 7 8 9 10 11 12 13 13 13 14 14 13 13 13 12 12 12 12 12 11 11 10 10 10 10 10 10
1 2 2 2 1 1 1 2 1 0 -0 -0 -1 -0 -0 1 1 3 4 5 6 6 7 8 9 10 11 12 13 13 13 13 13 13 12 12 12 12 12 12 12 11 11 11 11 11 11 11 11
1 1 2 2 2 1 2 2 1 0 -0 -1 -1 -0 0 1 2 3 4 5 6 7 7 8 10 10 11 12 12 13 13 13 12 12 12 12 12 12 12 12 11 11 11 11 11 12 12 11 11